Powrót do katalogu

STARLINK-35979

AktywnyŁącznośćVLEO
NORAD 66809·PAYLOAD·🇺🇸 United States

Wystrzelony Dec 1, 2025 z Cape Canaveral Space Force Station

Loading…

Następne Przeloty (najbliższe 24 godziny)

TLE

ŚwieżeSource: CelesTrak SupGP

Epoka: Sep 15, 2026, 02:35 UTC

1 66809C 25278U   26258.10812500  .00056547  00000+0  20483-2 0  2586
2 66809  43.0005 124.9913 0001523 277.2072  95.5452 15.27546689    14

Śledź STARLINK-35979 w czasie rzeczywistym z AllMySat

Download on the App Store